Regional Weather Roundup
Issued by NWS Bismarck, ND

Home | Current Version | Previous Version | Text Only | Print | Product List | Glossary On
Versions: 1 2 3 4 5 6 7 8 9 10 11 12 13 14 15 16 17 18 19 20 21 22 23 24 25 26 27 28 29 30 31 32 33 34 35 36 37 38 39 40 41 42 43 44 45 46 47 48 49 50
000
ASUS43 KBIS 291510
RWRBIS

NWR BROADCAST TEXT
NATIONAL WEATHER SERVICE BISMARCK ND
1000 AM CDT FRI MAY 29 2015

NOTE: "FAIR" INDICATES FEW OR NO CLOUDS BELOW 12,000 FEET WITH NO
SIGNIFICANT WEATHER AND/OR OBSTRUCTIONS TO VISIBILITY.


CITY           SKY/WX    TMP DP  RH WIND       PRES   REMARKS
WILLISTON      CLOUDY    47  32  56 N10       30.32R
MINOT          CLOUDY    45  34  65 NW17G23   30.25R
MINOT AFB      CLOUDY    45  40  83 N16G22    30.25R
BISMARCK       CLOUDY    50  37  61 N22       30.21R
DICKINSON      CLOUDY    45  33  63 N16       30.24R
GARRISON         N/A     47  35  63 N12G22    30.25R
HETTINGER ARPT CLOUDY    45  39  79 N14       30.24R
JAMESTOWN      CLOUDY    49  40  71 N25G35    30.13R
BEACH          CLOUDY    45  34  65 N12G23    30.30R
CARRINGTON     CLOUDY    45  39  81 N21       30.19R
CROSBY         CLOUDY    43  32  65 N9G18     30.33R
HARVEY         CLOUDY    46  36  66 N22G28    30.21R
HAZEN          CLOUDY    46  36  66 N17       30.25R
LINTON         CLOUDY    48  45  87 N22G28    30.17R
MANDAN         CLOUDY    48  37  66 N16G28    30.22R
OAKES            N/A     48  46  93 N26G32    30.09R
STANLEY        CLOUDY    43  36  75 N13       30.29R
WATFORD CITY   CLOUDY    45  34  65 N14       30.28S
$$

CITY           SKY/WX    TMP DP  RH WIND       PRES   REMARKS
GRAND FORKS    CLOUDY    45  39  79 N29G35    30.13R
GRAND FORKS AF CLOUDY    45  36  70 N24G36    30.15R
DEVILS LAKE    CLOUDY    45  32  61 N25G32    30.19R
FARGO          CLOUDY    48  42  80 N28G38    30.08R
CANDO          CLOUDY    45  34  65 N24G30    30.21R
GRAFTON        CLOUDY    43  37  81 N25       30.17R
LANGDON        CLOUDY    43  36  75 N26G35    30.18R
ROLLA          CLOUDY    41  37  87 N24G31    30.22S
WALHALLA         N/A     45  43  93 MISG      30.19R
$$

CITY           SKY/WX    TMP DP  RH WIND       PRES   REMARKS
ABERDEEN       LGT RAIN  51  48  89 N23G31    30.06R
MOBRIDGE       CLOUDY    52  47  83 N24       30.12R
BUFFALO          N/A     47  42  83 N16       30.18R
RAPID CITY     LGT RAIN  47  46  97 N26G33    30.19R FOG
GLASGOW        SUNNY     46  32  58 NE7       30.35R
SIDNEY         CLOUDY    46  30  53 N7        30.32S
WOLF POINT     PTSUNNY   46  33  60 VRB6      30.36S
GLENDIVE       PTSUNNY   43  30  61 N8        30.33R
MILES CITY     MOSUNNY   48  32  53 N13       30.33R
BAKER          PTSUNNY   44  34  67 N12       30.29R
$$

CITY           SKY/WX    TMP DP  RH WIND       PRES   REMARKS
BILLINGS       CLOUDY    46  40  79 NE6       30.33S
GREAT FALLS    CLOUDY    47  43  86 E6        30.28S
REGINA         MOSUNNY   45  28  53 N12       30.36R
ESTEVAN        CLOUDY    43  34  70 N15       30.32R
$$



USA.gov is the U.S. government's official web portal to all federal, state and local government web resources and services.